CW5619 Weather Reports


time (UTC)temp
C
wind
direction
speed
KPH
gust
KPH
rain 1hr
cm
rain 24hr
cm
rain mn
cm
humidity
%
barometer
mb
20260509023903 30 8 1.6 3.2 0.00 0.00 0.00 14 1010.0
20260509022902 31 339 0.0 4.8 0.00 0.00 0.00 13 1009.9
20260509022403 31 36 0.0 4.8 0.00 0.00 0.00 13 1009.8
20260509021902 31 315 1.6 4.8 0.00 0.00 0.00 13 1009.8
20260509021402 31 256 1.6 4.8 0.00 0.00 0.00 12 1009.7
20260509020903 31 133 1.6 4.8 0.00 0.00 0.00 12 1009.7
20260509020402 32 241 1.6 4.8 0.00 0.00 0.00 12 1009.6
20260509015903 32 293 1.6 9.7 0.00 0.00 0.00 12 1009.7
20260509015403 32 207 1.6 11.3 0.00 0.00 0.00 12 1009.6
20260509014903 32 280 3.2 11.3 0.00 0.00 0.00 12 1009.6
20260509013903 32 234 4.8 12.9 0.00 0.00 0.00 11 1009.5
20260509013403 32 219 3.2 12.9 0.00 0.00 0.00 11 1009.4
20260509012402 33 214 3.2 14.5 0.00 0.00 0.00 11 1009.4
20260509011902 33 251 4.8 12.9 0.00 0.00 0.00 11 1009.4
20260509011402 33 246 3.2 12.9 0.00 0.00 0.00 11 1009.5
20260509010902 33 214 4.8 12.9 0.00 0.00 0.00 11 1009.4
20260509005902 33 220 4.8 11.3 0.00 0.00 0.00 11 1009.4
20260509005403 33 70 3.2 11.3 0.00 0.00 0.00 11 1009.4
20260509004902 33 218 4.8 12.9 0.00 0.00 0.00 11 1009.5
20260509004403 33 241 4.8 12.9 0.00 0.00 0.00 11 1009.4
20260509003903 34 183 4.8 12.9 0.00 0.00 0.00 11 1009.5
20260509003403 34 299 3.2 8.0 0.00 0.00 0.00 11 1009.5
20260509002903 34 262 1.6 12.9 0.00 0.00 0.00 10 1009.5
20260509002402 34 11 4.8 14.5 0.00 0.00 0.00 10 1009.5
20260509001903 34 205 4.8 20.9 0.00 0.00 0.00 10 1009.6
20260509001402 34 204 4.8 20.9 0.00 0.00 0.00 10 1009.6
20260509000403 35 262 3.2 11.3 0.00 0.00 0.00 10 1009.6
20260508235903 35 230 4.8 12.9 0.00 0.00 0.00 10 1009.5
20260508235402 34 317 4.8 19.3 0.00 0.00 0.00 10 1009.5
20260508234902 35 312 8.0 19.3 0.00 0.00 0.00 10 1009.6
20260508234403 35 313 4.8 14.5 0.00 0.00 0.00 10 1009.6
20260508233902 35 253 3.2 14.5 0.00 0.00 0.00 10 1009.6
20260508233403 35 235 4.8 19.3 0.00 0.00 0.00 9 1009.7
20260508232403 35 189 6.4 22.5 0.00 0.00 0.00 10 1009.8
20260508231903 35 236 3.2 14.5 0.00 0.00 0.00 10 1009.7
20260508231402 35 238 3.2 11.3 0.00 0.00 0.00 10 1009.9
20260508230403 35 30 4.8 11.3 0.00 0.00 0.00 10 1009.9
20260508225903 35 235 4.8 11.3 0.00 0.00 0.00 10 1009.9
20260508225403 35 214 4.8 19.3 0.00 0.00 0.00 10 1009.9
20260508224902 35 215 4.8 19.3 0.00 0.00 0.00 10 1010.0
20260508223903 36 238 6.4 16.1 0.00 0.00 0.00 10 1010.0
20260508223403 36 205 6.4 16.1 0.00 0.00 0.00 10 1010.2
20260508222903 35 302 4.8 11.3 0.00 0.00 0.00 9 1010.3
20260508222403 35 213 4.8 20.9 0.00 0.00 0.00 10 1010.3
20260508221403 35 254 3.2 16.1 0.00 0.00 0.00 10 1010.5
20260508220903 35 227 4.8 20.9 0.00 0.00 0.00 10 1010.5
20260508220403 35 211 6.4 20.9 0.00 0.00 0.00 11 1010.6
20260508215903 35 224 3.2 20.9 0.00 0.00 0.00 11 1010.6
20260508215403 36 280 4.8 20.9 0.00 0.00 0.00 11 1010.8
20260508214903 35 215 4.8 14.5 0.00 0.00 0.00 11 1010.8
20260508214404 35 234 4.8 14.5 0.00 0.00 0.00 12 1011.0
20260508213903 35 278 6.4 14.5 0.00 0.00 0.00 12 1011.1
20260508213403 35 358 4.8 14.5 0.00 0.00 0.00 12 1011.1
20260508212903 35 228 3.2 20.9 0.00 0.00 0.00 12 1011.2
20260508212404 35 169 6.4 20.9 0.00 0.00 0.00 11 1011.3
20260508211902 35 213 4.8 16.1 0.00 0.00 0.00 11 1011.4
20260508210903 35 230 4.8 16.1 0.00 0.00 0.00 11 1011.4
20260508210403 35 214 4.8 16.1 0.00 0.00 0.00 12 1011.5
20260508205903 35 328 3.2 14.5 0.00 0.00 0.00 13 1011.5
20260508205402 35 216 4.8 16.1 0.00 0.00 0.00 12 1011.7
20260508204902 35 166 3.2 16.1 0.00 0.00 0.00 12 1011.7
20260508204402 35 337 4.8 16.1 0.00 0.00 0.00 12 1011.8
20260508203903 35 220 3.2 12.9 0.00 0.00 0.00 12 1011.7
20260508202403 35 265 3.2 19.3 0.00 0.00 0.00 12 1012.1
20260508201902 35 291 8.0 19.3 0.00 0.00 0.00 14 1012.0
20260508201402 35 229 3.2 12.9 0.00 0.00 0.00 13 1012.1
20260508200902 35 196 3.2 19.3 0.00 0.00 0.00 13 1012.1
20260508200403 34 232 4.8 19.3 0.00 0.00 0.00 13 1012.3
20260508195903 34 159 3.2 14.5 0.00 0.00 0.00 13 1012.3
20260508194903 34 213 6.4 19.3 0.00 0.00 0.00 14 1012.6
20260508194403 33 236 3.2 16.1 0.00 0.00 0.00 14 1012.6
20260508193903 33 329 3.2 16.1 0.00 0.00 0.00 14 1012.7
20260508193403 33 177 3.2 12.9 0.00 0.00 0.00 14 1012.7
20260508192902 33 219 4.8 16.1 0.00 0.00 0.00 14 1012.7
20260508192402 33 301 4.8 16.1 0.00 0.00 0.00 14 1012.8
20260508191903 33 228 3.2 16.1 0.00 0.00 0.00 14 1012.9
20260508191403 33 345 4.8 14.5 0.00 0.00 0.00 15 1012.9
20260508190903 33 161 3.2 9.7 0.00 0.00 0.00 14 1013.1
20260508190403 33 221 3.2 11.3 0.00 0.00 0.00 14 1013.2
20260508185902 33 209 4.8 14.5 0.00 0.00 0.00 14 1013.1
20260508185403 33 320 3.2 16.1 0.00 0.00 0.00 15 1013.1
20260508184903 32 303 4.8 16.1 0.00 0.00 0.00 15 1013.2
20260508184403 32 223 4.8 16.1 0.00 0.00 0.00 14 1013.2
20260508183402 32 254 1.6 14.5 0.00 0.00 0.00 16 1013.4
20260508182903 32 168 4.8 11.3 0.00 0.00 0.00 15 1013.5
20260508182402 31 291 3.2 12.9 0.00 0.00 0.00 17 1013.5
20260508181903 31 45 3.2 12.9 0.00 0.00 0.00 17 1013.6
20260508181402 31 225 3.2 11.3 0.00 0.00 0.00 16 1013.6
20260508180902 31 239 3.2 8.0 0.00 0.00 0.00 17 1013.7
20260508180403 31 215 3.2 4.8 0.00 0.00 0.00 16 1013.8
20260508175904 31 184 3.2 4.8 0.00 0.00 0.00 17 1013.9
20260508175403 30 185 1.6 4.8 0.00 0.00 0.00 17 1014.0
20260508174903 29 77 3.2 4.8 0.00 0.00 0.00 18 1014.0
20260508174403 30 119 3.2 4.8 0.00 0.00 0.00 17 1014.0
20260508172902 28 55 3.2 8.0 0.00 0.00 0.00 19 1014.1
20260508172403 28 199 3.2 8.0 0.00 0.00 0.00 19 1014.2
20260508171902 28 234 1.6 4.8 0.00 0.00 0.00 19 1014.3
20260508171403 28 76 1.6 4.8 0.00 0.00 0.00 19 1014.3
20260508170903 28 163 1.6 4.8 0.00 0.00 0.00 20 1014.4
20260508165903 28 237 1.6 4.8 0.00 0.00 0.00 19 1014.5
20260508164903 27 231 0.0 4.8 0.00 0.00 0.00 22 1014.6
20260508163902 27 200 3.2 4.8 0.00 0.00 0.00 21 1014.6
20260508163402 27 66 1.6 4.8 0.00 0.00 0.00 23 1014.7
20260508162903 26 195 1.6 4.8 0.00 0.00 0.00 22 1014.7
20260508162403 26 192 1.6 4.8 0.00 0.00 0.00 23 1014.7
20260508161903 26 147 1.6 8.0 0.00 0.00 0.00 24 1014.8
20260508161402 26 218 1.6 8.0 0.00 0.00 0.00 24 1014.7
20260508160903 26 95 3.2 4.8 0.00 0.00 0.00 24 1014.8
20260508155903 25 176 1.6 4.8 0.00 0.00 0.00 26 1014.7
20260508155402 24 204 1.6 4.8 0.00 0.00 0.00 26 1014.7
20260508154903 24 234 1.6 8.0 0.00 0.00 0.00 27 1014.8
20260508153903 23 150 1.6 8.0 0.00 0.00 0.00 28 1014.8
20260508153403 23 190 3.2 8.0 0.00 0.00 0.00 28 1014.9
20260508152904 23 158 3.2 8.0 0.00 0.00 0.00 29 1014.9
20260508152402 22 187 1.6 4.8 0.00 0.00 0.00 30 1014.9
20260508151903 22 194 3.2 9.7 0.00 0.00 0.00 29 1014.9
20260508151403 22 115 3.2 9.7 0.00 0.00 0.00 30 1014.9
20260508150403 21 195 1.6 4.8 0.00 0.00 0.00 31 1014.9
20260508145902 21 109 1.6 4.8 0.00 0.00 0.00 32 1014.9
20260508145402 21 167 1.6 8.0 0.00 0.00 0.00 32 1014.9
20260508144403 21 199 3.2 8.0 0.00 0.00 0.00 33 1015.0
20260508143403 20 186 3.2 8.0 0.00 0.00 0.00 34 1014.9
20260508142904 20 178 1.6 8.0 0.00 0.00 0.00 34 1014.9
20260508142403 20 147 1.6 4.8 0.00 0.00 0.00 36 1014.9
20260508141903 20 160 1.6 4.8 0.00 0.00 0.00 35 1014.8
20260508141403 19 131 1.6 9.7 0.00 0.00 0.00 35 1014.7
20260508140903 19 93 3.2 9.7 0.00 0.00 0.00 36 1014.6
20260508135902 18 96 3.2 9.7 0.00 0.00 0.00 37 1014.6
20260508133903 16 88 1.6 3.2 0.00 0.00 0.00 44 1014.5
20260508133403 16 90 0.0 4.8 0.00 0.00 0.00 45 1014.5
20260508132403 15 89 1.6 4.8 0.00 0.00 0.00 48 1014.4
20260508131902 15 80 1.6 3.2 0.00 0.00 0.00 49 1014.3
20260508131403 15 86 1.6 3.2 0.00 0.00 0.00 50 1014.2
20260508130903 15 89 1.6 3.2 0.00 0.00 0.00 49 1014.2
20260508125903 14 67 1.6 3.2 0.00 0.00 0.00 49 1014.1
20260508125403 14 81 0.0 3.2 0.00 0.00 0.00 49 1014.0
20260508124903 14 81 0.0 3.2 0.00 0.00 0.00 49 1013.9
20260508123902 14 80 0.0 1.6 0.00 0.00 0.00 49 1013.8
20260508123403 14 80 0.0 3.2 0.00 0.00 0.00 49 1013.8
20260508122904 14 80 0.0 3.2 0.00 0.00 0.00 48 1013.8
20260508122403 14 80 0.0 3.2 0.00 0.00 0.00 48 1013.7
20260508121903 14 82 1.6 3.2 0.00 0.00 0.00 48 1013.6
20260508121403 14 97 0.0 3.2 0.00 0.00 0.00 48 1013.6
20260508120902 14 98 0.0 3.2 0.00 0.00 0.00 48 1013.5
20260508120403 14 97 1.6 4.8 0.00 0.00 0.00 47 1013.5
20260508115903 15 93 1.6 4.8 0.00 0.00 0.00 47 1013.5
20260508115403 15 98 1.6 4.8 0.00 0.00 0.00 47 1013.4
20260508114903 15 105 0.0 3.2 0.00 0.00 0.00 47 1013.4
20260508114403 15 95 1.6 4.8 0.00 0.00 0.00 47 1013.5
20260508113903 15 87 1.6 4.8 0.00 0.00 0.00 46 1013.5
20260508113403 15 81 0.0 3.2 0.00 0.00 0.00 46 1013.4
20260508112903 15 78 0.0 3.2 0.00 0.00 0.00 47 1013.4
20260508112404 15 78 0.0 1.6 0.00 0.00 0.00 46 1013.3
20260508110903 15 78 1.6 4.8 0.00 0.00 0.00 45 1013.3
20260508110403 15 83 1.6 4.8 0.00 0.00 0.00 45 1013.1
20260508105903 15 97 0.0 3.2 0.00 0.00 0.00 45 1013.1
20260508105403 15 91 0.0 3.2 0.00 0.00 0.00 45 1013.1
20260508104903 15 85 0.0 3.2 0.00 0.00 0.00 45 1013.2
20260508104403 15 85 0.0 3.2 0.00 0.00 0.00 45 1013.2
20260508103902 15 84 1.6 3.2 0.00 0.00 0.00 45 1013.1
20260508102903 16 84 1.6 4.8 0.00 0.00 0.00 45 1013.1
20260508102403 16 77 0.0 3.2 0.00 0.00 0.00 45 1013.1
20260508101902 16 64 1.6 3.2 0.00 0.00 0.00 44 1013.1
20260508101403 16 87 0.0 1.6 0.00 0.00 0.00 44 1013.1
20260508100903 16 87 0.0 1.6 0.00 0.00 0.00 43 1013.1
20260508100402 16 87 0.0 1.6 0.00 0.00 0.00 43 1013.0
20260508095903 16 87 0.0 3.2 0.00 0.00 0.00 42 1013.1
20260508095403 16 87 0.0 3.2 0.00 0.00 0.00 42 1012.9
20260508094902 16 87 0.0 3.2 0.00 0.00 0.00 42 1012.9
20260508094403 16 72 1.6 3.2 0.00 0.00 0.00 42 1012.9
20260508093403 16 98 1.6 4.8 0.00 0.00 0.00 41 1012.9
20260508091903 17 69 0.0 3.2 0.00 0.00 0.00 40 1012.9
20260508090903 17 88 0.0 4.8 0.00 0.00 0.00 39 1013.0
20260508090402 17 91 0.0 4.8 0.00 0.00 0.00 40 1013.0
20260508085903 17 96 1.6 3.2 0.00 0.00 0.00 40 1012.9
20260508085403 17 61 0.0 3.2 0.00 0.00 0.00 39 1013.0
20260508084903 17 61 1.6 3.2 0.00 0.00 0.00 38 1013.0
20260508084404 18 55 1.6 3.2 0.00 0.00 0.00 38 1013.1
20260508083904 18 54 0.0 3.2 0.00 0.00 0.00 38 1013.1
20260508083403 18 46 1.6 3.2 0.00 0.00 0.00 38 1013.1
20260508082903 18 45 0.0 4.8 0.00 0.00 0.00 38 1013.2
20260508082402 18 71 1.6 4.8 0.00 0.00 0.00 38 1013.3
20260508081902 18 71 0.0 3.2 0.00 0.00 0.00 38 1013.3
20260508081402 18 72 1.6 3.2 0.00 0.00 0.00 37 1013.3
20260508080902 18 64 1.6 3.2 0.00 0.00 0.00 38 1013.2
20260508080404 18 59 1.6 3.2 0.00 0.00 0.00 38 1013.3
20260508075903 18 81 0.0 0.0 0.00 0.00 0.00 39 1013.3
20260508075404 18 81 0.0 0.0 0.00 0.00 0.00 40 1013.4
20260508074903 18 81 0.0 0.0 0.00 0.00 0.00 42 1013.5
20260508074403 18 81 0.0 0.0 0.00 0.00 0.00 41 1013.5
20260508073903 18 81 0.0 0.0 0.00 0.00 0.00 38 1013.6
20260508073402 18 81 0.0 0.0 0.00 0.00 0.00 38 1013.7
20260508072904 18 81 0.0 0.0 0.00 0.00 0.00 38 1013.7
20260508071903 19 81 0.0 0.0 0.00 0.00 0.00 37 1013.6
20260508071403 19 81 0.0 0.0 0.00 0.00 0.00 36 1013.7
20260508070903 19 81 0.0 0.0 0.00 0.00 0.00 35 1013.6
20260508070402 20 81 0.0 0.0 0.00 0.00 0.00 34 1013.7
20260508065904 20 81 0.0 0.0 0.00 0.00 0.00 33 1013.6
20260508065403 20 81 0.0 0.0 0.00 0.00 0.00 33 1013.6
20260508064903 20 81 0.0 0.0 0.00 0.00 0.00 32 1013.6
20260508064402 20 81 0.0 0.0 0.00 0.00 0.00 32 1013.6
20260508063903 20 81 0.0 0.0 0.00 0.00 0.00 32 1013.7
20260508063403 20 81 0.0 1.6 0.00 0.00 0.00 32 1013.7